Voltar ao catálogo

ATLAS V CENTAUR R/B

AtivoMEO
NORAD 41329·ROCKET BODY·🇺🇸 United States

Lançado Feb 5, 2016 de Cape Canaveral Space Force Station

Loading…

Próximas Passagens (próximas 24 horas)

TLE

EnvelhecendoSource: Space-Track

Época: Aug 30, 2026, 22:24 UTC

1 41329U 16007B   26242.93381777  .00000029  00000-0  00000-0 0  9995
2 41329  55.7473 101.3392 0108150 358.8245   1.2496  1.91799280 74044

Acompanhe ATLAS V CENTAUR R/B em tempo real com AllMySat

Download on the App Store